Regional Weather Roundup
Issued by NWS Charleston, SC

Current Version | Previous Version | Graphics & Text | Print | Product List | Glossary On
Versions: 1 2 3 4 5 6 7 8 9 10 11 12 13 14 15 16 17 18 19 20 21 22 23 24 25 26 27 28 29 30 31 32 33 34 35 36 37 38 39 40 41 42 43 44 45 46 47 48 49 50
000
ASUS42 KCHS 260826
RWRCHS

REGIONAL WEATHER ROUNDUP
NATIONAL WEATHER SERVICE CHARLESTON SC
300 AM EST SUN FEB 26 2017

NOTE: "FAIR" INDICATES FEW OR NO CLOUDS BELOW 12,000 FEET WITH NO
SIGNIFICANT WEATHER AND/OR OBSTRUCTIONS TO VISIBILITY.

NOT ALL STATIONS ARE QUALITY CONTROLLED. USE DATA WITH CAUTION...
ESPECIALLY DEWPOINT OBSERVATIONS.

SCZ027-030-031-034>040-042>050-260900-
...SOUTHEAST SOUTH CAROLINA...

CITY           SKY/WX    TMP DP  RH WIND       PRES   REMARKS
N CHARLESTON   CLEAR     53  20  27 NW14      30.01R
WATERFRONT PRK   N/A     56  26  31 NW7       29.99R
MOUNT PLEASANT LGT RAIN  54  27  35 NW8       30.01R
JOHNS ISLAND   FAIR      50  25  37 W6        30.02R
PINOPOLIS        N/A     55  34  44 NW15      29.90R
MONCKS CORNER  FAIR      50  19  29 CALM      30.01R
SUMMERVILLE    FAIR      52  23  32 NW5       30.03R
BEAUFORT MCAS  CLEAR     53  25  33 NW10      30.03R
BEAUFORT ARPT  FAIR      52  28  40 NW8       30.03R
HILTON HEAD IS CLEAR     54  23  30 NW8G15    30.04R
WALTERBORO     SUNNY     50  23  34 NW6       30.04R
ALLENDALE      FAIR      48  23  37 CALM      30.03R

...SOUTHERN MIDLANDS AND PEE DEE...

CITY           SKY/WX    TMP DP  RH WIND       PRES   REMARKS
GEORGETOWN     FAIR      50  23  34 W5        30.00R
KINGSTREE      FAIR      48  23  37 NW7       30.00R
ORANGEBURG     CLEAR     50  22  33 NW7       30.02R
BARNWELL       FAIR      48  25  40 NW7       30.04R
AIKEN          FAIR      41  21  45 NW7       30.07R
MANNING        FAIR      48  23  37 MISG      30.01R
COLUMBIA       CLEAR     50  25  37 NW8       30.02R
SUMTER         CLEAR     48  22  35 NW6       29.99R
FLORENCE       CLEAR     49  25  39 NW8       29.99R
MYRTLE BEACH   NOT AVBL
N MYRTLE BEACH CLEAR     54  24  31 NW6       29.96R

$$

GAZ063-065-086>088-099>101-113>116-118-119-134>141-150-260900-
...SOUTHEAST GEORGIA...

CITY           SKY/WX    TMP DP  RH WIND       PRES   REMARKS
SAVANNAH ARPT  CLEAR     51  23  33 NW8       30.04R
HUNTER AAF     CLEAR     52  28  39 CALM      30.02R
FORT STEWART   CLEAR     51  23  33 NW7       30.03R
STATESBORO     CLEAR     47  30  52 NW8       30.06R
SYLVANIA       SUNNY    N/A N/A N/A NW8       30.06R
CLAXTON        FAIR      47  29  50 CALM      30.07R

...CSRA...CENTRAL AND FAR SOUTHEAST GEORGIA...

CITY           SKY/WX    TMP DP  RH WIND       PRES   REMARKS
THOMSON        CLEAR     44  27  52 CALM      30.11R
AUGUSTA-BUSH   CLEAR     47  24  40 NW8       30.05R
AUGUSTA-DANIEL CLEAR     49  18  29 NW12G20   30.05R
SWAINSBORO     FAIR      46  28  49 NW7       30.07R
VIDALIA        CLEAR     48  32  53 NW7       30.07R
EASTMAN        FAIR      47  12  24 CALM      30.11R
HAZLEHURST     FAIR      50  25  38 NW5       30.07R
ALMA           CLEAR     46  27  47 CALM      30.07R
WAYCROSS       CLEAR     51  32  48 NW5       30.08R
JESUP          FAIR      52  23  32 NW7       30.07R
BAXLEY         FAIR      50  30  46 NW5       30.07R
BRUNSWICK      CLEAR     50  36  57 N6        30.07R
SAINT SIMONS   PTCLDY    54  30  40 NW5       30.05R

$$

SCZ027-028-034-036>038-045-046-048>050-GAZ119-141-260900-
...LAKE AND SUPPLEMENTAL COASTAL OBSERVATIONS...

STATION/POSITION TIME  TEMP    WIND        PRES    WAVE   SWELL
                       AIR SEA DIR/SP/G            HT/PER HT/PER/DIR
                 (UTC) (F)     (DEG/KT/KT) (MB)    (FT/S) (FT/S/D)
WINYAH BAY       0730   56     290/  7     1014.0S
LAKE MURRAY      0750   47     310/  3/  7 1016.3R
ACE BASIN NERRS  0745   52     300/  2     1016.0R
FORT PULASKI     0800   55 63  320/  9/ 12 1017.4
SAPELO ISLAND    0800   53     320/  7     1017.0

$$

ANZ835-935-AMZ111-154-330-350-352-354-370-450-454-472-260900-
...C-MAN AND BUOY OBSERVATIONS...

STATION/POSITION TIME  TEMP    WIND        PRES    WAVE   SWELL
                       AIR SEA DIR/SP/G            HT/PER HT/PER/DIR
                 (UTC) (F)     (DEG/KT/KT) (MB)    (FT/S) (FT/S/D)
BUOY 41004       0750   62 69  310/ 23/ 29 1014.2R   6/ 5   2/110/ 9
BUOY 41008       0750   60 62  320/ 19/ 23 1016.4R   4/ 4   2/ 80/10
FOLLY BEACH CMAN 0800   53     310/  5/ 11 1016.5R
CAPERS NEARSHORE 0708   59 60  310/ 14/ 17 1015.2R
FRIPP NEARSHORE  0808   57 62  320/ 12/ 14 1016.5R


STATION/POSITION TIME  TEMP    WIND        PRES    WAVE   SWELL
                       AIR SEA DIR/SP/G            HT/PER HT/PER/DIR
                 (UTC) (F)     (DEG/KT/KT) (MB)    (FT/S) (FT/S/D)
5E ST. MARYS GA  0800      65                N/A     3/ 9   2/ 70/11
FRYING PAN BUOY  0810   62 69  310/ 19/ 25 1013.4
BUOY 41025       0750   61 74  360/ 19/ 25 1011.0R   7/ 8   7/200/ 8
CAPE LOOKOUT NC  0800   59     330/ 19/ 22 1012.4R
BUOY 41002       0750   72 71  250/ 16/ 19 1012.2R   6/ 9   5/ 90/ 9
BUOY 41010       NOT AVBL
ST AUGUSTINE FL  0800   60 65  330/ 10/ 13 1018.1R


$$



USA.gov is the U.S. government's official web portal to all federal, state and local government web resources and services.